Time,TemperatureF,DewpointF,PressureIn,WindDirection,WindDirectionDegrees,WindSpeedMPH,WindSpeedGustMPH,Humidity,HourlyPrecipIn,Conditions,Clouds,dailyrainin,SolarRadiationWatts/m^2,SoftwareType,DateUTC
2017-12-14 00:04:00,41.2,38.2,30.41,NNE,23,2.0,3.0,89,0.00,,---,0.00,0.00,VWS V15.00,2017-12-14 08:04:00,
2017-12-14 00:09:00,41.3,38.3,30.42,NNE,28,1.0,3.0,89,0.00,,---,0.00,0.00,VWS V15.00,2017-12-14 08:09:00,
2017-12-14 00:14:00,41.3,38.3,30.41,NNE,28,2.0,3.0,89,0.00,,---,0.00,0.00,VWS V15.00,2017-12-14 08:14:00,
2017-12-14 00:19:00,41.4,38.4,30.41,NNE,28,3.0,4.0,89,0.00,,---,0.00,0.00,VWS V15.00,2017-12-14 08:19:00,
2017-12-14 00:24:00,41.5,38.5,30.41,NE,46,3.0,3.0,89,0.00,,---,0.00,0.00,VWS V15.00,2017-12-14 08:24:00,
2017-12-14 00:29:00,41.5,38.2,30.41,NE,49,3.0,3.0,88,0.00,,---,0.00,0.00,VWS V15.00,2017-12-14 08:29:00,
2017-12-14 00:34:00,41.6,38.6,30.41,NE,49,3.0,3.0,89,0.00,,---,0.00,0.00,VWS V15.00,2017-12-14 08:34:00,
2017-12-14 00:39:00,41.6,38.6,30.40,NE,49,3.0,3.0,89,0.00,,---,0.00,0.00,VWS V15.00,2017-12-14 08:39:00,
2017-12-14 00:44:00,41.6,38.6,30.41,NE,50,2.0,3.0,89,0.00,,---,0.00,0.00,VWS V15.00,2017-12-14 08:44:00,
2017-12-14 00:49:00,41.8,38.5,30.41,NE,49,2.0,3.0,88,0.00,,---,0.00,0.00,VWS V15.00,2017-12-14 08:49:00,
2017-12-14 00:59:00,42.2,38.6,30.41,NE,49,3.0,3.0,87,0.00,,---,0.00,0.00,VWS V15.00,2017-12-14 08:59:00,
2017-12-14 01:04:00,42.3,38.7,30.41,NE,50,3.0,3.0,87,0.00,,---,0.00,0.00,VWS V15.00,2017-12-14 09:04:00,
2017-12-14 01:09:00,42.4,38.5,30.41,NE,49,3.0,3.0,86,0.00,,---,0.00,0.00,VWS V15.00,2017-12-14 09:09:00,
2017-12-14 01:14:00,42.5,38.6,30.40,NE,49,3.0,3.0,86,0.00,,---,0.00,0.00,VWS V15.00,2017-12-14 09:14:00,
2017-12-14 01:19:00,42.4,38.8,30.40,NE,49,3.0,3.0,87,0.00,,---,0.00,0.00,VWS V15.00,2017-12-14 09:19:00,
2017-12-14 01:24:00,42.4,38.5,30.40,NE,49,0.0,2.0,86,0.00,,---,0.00,0.00,VWS V15.00,2017-12-14 09:24:00,
2017-12-14 01:29:00,42.4,38.5,30.40,NE,49,1.0,2.0,86,0.00,,---,0.00,0.00,VWS V15.00,2017-12-14 09:29:00,
2017-12-14 01:34:00,42.3,38.7,30.40,NE,50,2.0,2.0,87,0.00,,---,0.00,0.00,VWS V15.00,2017-12-14 09:34:00,
2017-12-14 01:39:00,42.3,38.7,30.40,NE,49,3.0,3.0,87,0.00,,---,0.00,0.00,VWS V15.00,2017-12-14 09:39:00,
2017-12-14 01:44:00,42.2,38.6,30.40,NE,49,2.0,2.0,87,0.00,,---,0.00,0.00,VWS V15.00,2017-12-14 09:44:00,
2017-12-14 01:49:00,42.2,38.6,30.40,NE,49,2.0,2.0,87,0.00,,---,0.00,0.00,VWS V15.00,2017-12-14 09:49:00,
2017-12-14 01:55:00,42.2,38.6,30.40,NE,49,2.0,2.0,87,0.00,,---,0.00,0.00,VWS V15.00,2017-12-14 09:55:00,
2017-12-14 02:00:00,42.2,38.6,30.40,NE,50,3.0,3.0,87,0.00,,---,0.00,0.00,VWS V15.00,2017-12-14 10:00:00,
2017-12-14 02:05:00,42.4,38.8,30.39,NE,50,2.0,3.0,87,0.00,,---,0.00,0.00,VWS V15.00,2017-12-14 10:05:00,
2017-12-14 02:10:00,42.4,38.8,30.40,NE,49,2.0,3.0,87,0.00,,---,0.00,0.00,VWS V15.00,2017-12-14 10:10:00,
2017-12-14 02:17:00,42.4,38.5,30.40,NE,49,1.0,2.0,86,0.00,,---,0.00,0.00,VWS V15.00,2017-12-14 10:17:00,
2017-12-14 02:22:00,42.3,38.4,30.40,NE,49,1.0,2.0,86,0.00,,---,0.00,0.00,VWS V15.00,2017-12-14 10:22:00,
2017-12-14 02:27:00,42.2,38.3,30.40,NE,49,1.0,2.0,86,0.00,,---,0.00,0.00,VWS V15.00,2017-12-14 10:27:00,
2017-12-14 02:32:00,42.1,38.2,30.40,NE,49,1.0,1.0,86,0.00,,---,0.00,0.00,VWS V15.00,2017-12-14 10:32:00,
2017-12-14 02:37:00,41.9,38.3,30.39,NE,50,2.0,3.0,87,0.00,,---,0.00,0.00,VWS V15.00,2017-12-14 10:37:00,
2017-12-14 02:42:00,41.8,38.2,30.39,NE,50,2.0,2.0,87,0.00,,---,0.00,0.00,VWS V15.00,2017-12-14 10:42:00,
2017-12-14 02:47:00,41.8,38.5,30.39,NE,49,1.0,3.0,88,0.00,,---,0.00,0.00,VWS V15.00,2017-12-14 10:47:00,
2017-12-14 02:52:00,41.7,38.4,30.39,NE,49,0.0,0.0,88,0.00,,---,0.00,0.00,VWS V15.00,2017-12-14 10:52:00,
2017-12-14 02:57:00,41.6,38.3,30.39,NE,49,0.0,1.0,88,0.00,,---,0.00,0.00,VWS V15.00,2017-12-14 10:57:00,
2017-12-14 03:02:00,41.5,38.2,30.39,NE,49,2.0,2.0,88,0.00,,---,0.00,0.00,VWS V15.00,2017-12-14 11:02:00,
2017-12-14 03:07:00,41.5,38.2,30.39,NE,49,2.0,2.0,88,0.00,,---,0.00,0.00,VWS V15.00,2017-12-14 11:07:00,
2017-12-14 03:12:00,41.5,38.2,30.39,NE,49,2.0,2.0,88,0.00,,---,0.00,0.00,VWS V15.00,2017-12-14 11:12:00,
2017-12-14 03:17:00,41.6,38.3,30.39,NE,49,1.0,2.0,88,0.00,,---,0.00,0.00,VWS V15.00,2017-12-14 11:17:00,
2017-12-14 03:22:00,41.8,38.5,30.39,NE,49,1.0,1.0,88,0.00,,---,0.00,0.00,VWS V15.00,2017-12-14 11:22:00,
2017-12-14 03:27:00,41.9,38.3,30.39,NE,49,1.0,2.0,87,0.00,,---,0.00,0.00,VWS V15.00,2017-12-14 11:27:00,
2017-12-14 03:32:00,42.0,38.4,30.39,NE,49,2.0,3.0,87,0.00,,---,0.00,0.00,VWS V15.00,2017-12-14 11:32:00,
2017-12-14 03:37:00,42.1,38.5,30.39,NE,49,2.0,3.0,87,0.00,,---,0.00,0.00,VWS V15.00,2017-12-14 11:37:00,
2017-12-14 03:42:00,42.2,38.3,30.40,NE,49,2.0,2.0,86,0.00,,---,0.00,0.00,VWS V15.00,2017-12-14 11:42:00,
2017-12-14 03:47:00,42.2,38.6,30.39,NE,49,1.0,3.0,87,0.00,,---,0.00,0.00,VWS V15.00,2017-12-14 11:47:00,
2017-12-14 03:52:00,42.1,38.5,30.39,NE,49,2.0,3.0,87,0.00,,---,0.00,0.00,VWS V15.00,2017-12-14 11:52:00,
2017-12-14 03:57:00,42.0,38.4,30.39,NE,50,2.0,3.0,87,0.00,,---,0.00,0.00,VWS V15.00,2017-12-14 11:57:00,
2017-12-14 04:02:00,41.9,38.3,30.39,NE,49,1.0,2.0,87,0.00,,---,0.00,0.00,VWS V15.00,2017-12-14 12:02:00,
2017-12-14 04:07:00,41.9,38.3,30.39,NE,49,0.0,2.0,87,0.00,,---,0.00,0.00,VWS V15.00,2017-12-14 12:07:00,
2017-12-14 04:13:00,41.8,38.2,30.39,NE,49,1.0,2.0,87,0.00,,---,0.00,0.00,VWS V15.00,2017-12-14 12:13:00,
2017-12-14 04:18:00,41.8,38.2,30.39,NE,49,3.0,3.0,87,0.00,,---,0.00,0.00,VWS V15.00,2017-12-14 12:18:00,
2017-12-14 04:23:00,41.8,38.2,30.39,NE,49,2.0,3.0,87,0.00,,---,0.00,0.00,VWS V15.00,2017-12-14 12:23:00,
2017-12-14 04:28:00,41.9,38.0,30.38,NE,49,3.0,3.0,86,0.00,,---,0.00,0.00,VWS V15.00,2017-12-14 12:28:00,
2017-12-14 04:33:00,42.1,38.2,30.38,NE,49,2.0,3.0,86,0.00,,---,0.00,0.00,VWS V15.00,2017-12-14 12:33:00,
2017-12-14 04:38:00,42.2,38.0,30.38,NE,49,3.0,3.0,85,0.00,,---,0.00,0.00,VWS V15.00,2017-12-14 12:38:00,
2017-12-14 04:43:00,42.2,38.0,30.38,NE,49,2.0,3.0,85,0.00,,---,0.00,0.00,VWS V15.00,2017-12-14 12:43:00,
2017-12-14 04:48:00,42.2,38.0,30.38,NE,49,2.0,3.0,85,0.00,,---,0.00,0.00,VWS V15.00,2017-12-14 12:48:00,
2017-12-14 04:53:00,42.2,38.0,30.38,NE,49,3.0,3.0,85,0.00,,---,0.00,0.00,VWS V15.00,2017-12-14 12:53:00,
2017-12-14 04:58:00,42.2,38.0,30.38,NNE,32,3.0,4.0,85,0.00,,---,0.00,0.00,VWS V15.00,2017-12-14 12:58:00,
2017-12-14 05:03:00,42.1,37.9,30.38,NE,36,2.0,3.0,85,0.00,,---,0.00,0.00,VWS V15.00,2017-12-14 13:03:00,
2017-12-14 05:08:00,42.1,38.2,30.38,North,5,2.0,3.0,86,0.00,,---,0.00,0.00,VWS V15.00,2017-12-14 13:08:00,
2017-12-14 05:13:00,42.2,38.3,30.38,NNE,14,2.0,2.0,86,0.00,,---,0.00,0.00,VWS V15.00,2017-12-14 13:13:00,
2017-12-14 05:18:00,42.1,38.2,30.38,NNE,13,1.0,2.0,86,0.00,,---,0.00,0.00,VWS V15.00,2017-12-14 13:18:00,
2017-12-14 05:23:00,42.0,38.1,30.38,NNE,14,1.0,2.0,86,0.00,,---,0.00,0.00,VWS V15.00,2017-12-14 13:23:00,
2017-12-14 05:28:00,41.9,38.0,30.38,NNE,14,0.0,2.0,86,0.00,,---,0.00,0.00,VWS V15.00,2017-12-14 13:28:00,
2017-12-14 05:33:00,41.7,38.1,30.38,NNE,14,1.0,1.0,87,0.00,,---,0.00,0.00,VWS V15.00,2017-12-14 13:33:00,
2017-12-14 05:38:00,41.6,38.0,30.38,NNE,14,1.0,2.0,87,0.00,,---,0.00,0.00,VWS V15.00,2017-12-14 13:38:00,
2017-12-14 05:43:00,41.4,37.8,30.38,North,349,1.0,3.0,87,0.00,,---,0.00,0.00,VWS V15.00,2017-12-14 13:43:00,
2017-12-14 05:48:00,41.3,37.7,30.38,North,360,0.0,3.0,87,0.00,,---,0.00,0.00,VWS V15.00,2017-12-14 13:48:00,
2017-12-14 05:53:00,41.4,37.8,30.38,North,355,3.0,3.0,87,0.00,,---,0.00,0.00,VWS V15.00,2017-12-14 13:53:00,
2017-12-14 05:58:00,41.5,37.9,30.38,NNE,17,1.0,3.0,87,0.00,,---,0.00,0.00,VWS V15.00,2017-12-14 13:58:00,
2017-12-14 06:03:00,41.5,37.9,30.38,NNE,17,1.0,2.0,87,0.00,,---,0.00,0.00,VWS V15.00,2017-12-14 14:03:00,
2017-12-14 06:08:00,41.6,38.0,30.38,NNE,17,0.0,2.0,87,0.00,,---,0.00,0.00,VWS V15.00,2017-12-14 14:08:00,
2017-12-14 06:13:00,41.6,38.0,30.38,NNE,17,1.0,1.0,87,0.00,,---,0.00,0.00,VWS V15.00,2017-12-14 14:13:00,
2017-12-14 06:18:00,41.5,37.9,30.38,NNE,17,0.0,1.0,87,0.00,,---,0.00,0.00,VWS V15.00,2017-12-14 14:18:00,
2017-12-14 06:23:00,41.5,37.9,30.38,NNE,17,0.0,0.0,87,0.00,,---,0.00,0.00,VWS V15.00,2017-12-14 14:23:00,
2017-12-14 06:28:00,41.4,38.1,30.38,NNE,17,0.0,0.0,88,0.00,,---,0.00,0.00,VWS V15.00,2017-12-14 14:28:00,
2017-12-14 06:33:00,41.2,37.9,30.38,NNE,17,0.0,0.0,88,0.00,,---,0.00,0.00,VWS V15.00,2017-12-14 14:33:00,
2017-12-14 06:38:00,41.1,37.8,30.38,NNE,17,0.0,0.0,88,0.00,,---,0.00,0.00,VWS V15.00,2017-12-14 14:38:00,
2017-12-14 06:43:00,41.0,38.0,30.38,NNE,17,0.0,0.0,89,0.00,,---,0.00,0.00,VWS V15.00,2017-12-14 14:43:00,
2017-12-14 06:48:00,40.9,37.9,30.37,NNE,17,0.0,0.0,89,0.00,,---,0.00,0.00,VWS V15.00,2017-12-14 14:48:00,
2017-12-14 06:53:00,40.8,37.8,30.37,NNE,17,0.0,0.0,89,0.00,,---,0.00,0.00,VWS V15.00,2017-12-14 14:53:00,
2017-12-14 06:58:00,40.7,37.7,30.37,NNE,17,0.0,0.0,89,0.00,,---,0.00,0.00,VWS V15.00,2017-12-14 14:58:00,
2017-12-14 07:03:00,40.7,37.7,30.37,NNE,17,0.0,0.0,89,0.00,,---,0.00,0.00,VWS V15.00,2017-12-14 15:03:00,
2017-12-14 07:08:00,40.7,37.7,30.36,NNE,17,0.0,0.0,89,0.00,,---,0.00,0.00,VWS V15.00,2017-12-14 15:08:00,
2017-12-14 07:13:00,40.6,37.6,30.36,NNE,17,0.0,0.0,89,0.00,,---,0.00,0.00,VWS V15.00,2017-12-14 15:13:00,
2017-12-14 07:19:00,40.5,37.8,30.36,NNE,17,0.0,0.0,90,0.00,,---,0.00,0.00,VWS V15.00,2017-12-14 15:19:00,
2017-12-14 07:21:00,40.4,37.7,30.36,NNE,17,0.0,0.0,90,0.00,,---,0.00,0.00,VWS V15.00,2017-12-14 15:21:00,
2017-12-14 07:26:00,40.2,37.5,30.36,NNE,17,0.0,0.0,90,0.00,,---,0.00,0.00,VWS V15.00,2017-12-14 15:26:00,
2017-12-14 07:31:00,40.1,37.4,30.35,NNE,17,0.0,0.0,90,0.00,,---,0.00,0.00,VWS V15.00,2017-12-14 15:31:00,
2017-12-14 07:36:00,40.0,37.3,30.36,NNE,17,2.0,2.0,90,0.00,,---,0.00,0.00,VWS V15.00,2017-12-14 15:36:00,
2017-12-14 07:41:00,40.0,37.3,30.36,NNE,17,0.0,1.0,90,0.00,,---,0.00,0.00,VWS V15.00,2017-12-14 15:41:00,
2017-12-14 07:46:00,40.1,37.4,30.36,NNE,17,2.0,2.0,90,0.00,,---,0.00,0.00,VWS V15.00,2017-12-14 15:46:00,
2017-12-14 07:51:00,40.0,37.3,30.36,NNE,17,2.0,2.0,90,0.00,,---,0.00,0.00,VWS V15.00,2017-12-14 15:51:00,
2017-12-14 08:01:00,40.1,37.4,30.36,NNE,17,2.0,2.0,90,0.00,,---,0.00,0.00,VWS V15.00,2017-12-14 16:01:00,
2017-12-14 08:06:00,40.1,37.4,30.36,NNE,17,2.0,3.0,90,0.00,,---,0.00,0.00,VWS V15.00,2017-12-14 16:06:00,
2017-12-14 08:14:00,40.1,37.1,30.35,NNE,17,2.0,3.0,89,0.00,,---,0.00,7.00,VWS V15.00,2017-12-14 16:14:00,
2017-12-14 08:19:00,40.1,37.1,30.35,NNE,17,1.0,3.0,89,0.00,,---,0.00,9.00,VWS V15.00,2017-12-14 16:19:00,
2017-12-14 08:24:00,40.0,37.3,30.35,NNE,17,1.0,2.0,90,0.00,,---,0.00,9.00,VWS V15.00,2017-12-14 16:24:00,
2017-12-14 08:29:00,39.9,37.2,30.34,NNE,17,2.0,2.0,90,0.00,,---,0.00,12.00,VWS V15.00,2017-12-14 16:29:00,
2017-12-14 08:34:00,39.8,37.1,30.35,NNE,17,0.0,2.0,90,0.00,,---,0.00,14.00,VWS V15.00,2017-12-14 16:34:00,
2017-12-14 08:39:00,39.8,37.1,30.35,NNE,17,0.0,2.0,90,0.00,,---,0.00,16.00,VWS V15.00,2017-12-14 16:39:00,
2017-12-14 08:44:00,39.8,37.1,30.36,NNE,17,0.0,1.0,90,0.00,,---,0.00,18.00,VWS V15.00,2017-12-14 16:44:00,
2017-12-14 08:49:00,39.8,37.1,30.36,NNE,17,0.0,1.0,90,0.00,,---,0.00,19.00,VWS V15.00,2017-12-14 16:49:00,
2017-12-14 08:54:00,39.8,37.1,30.36,NNE,17,0.0,0.0,90,0.00,,---,0.00,23.00,VWS V15.00,2017-12-14 16:54:00,
2017-12-14 08:59:00,39.8,37.1,30.36,NNE,17,1.0,1.0,90,0.00,,---,0.00,25.00,VWS V15.00,2017-12-14 16:59:00,
2017-12-14 09:04:00,39.8,37.1,30.36,NNE,17,1.0,2.0,90,0.00,,---,0.00,25.00,VWS V15.00,2017-12-14 17:04:00,
2017-12-14 09:09:00,39.8,37.1,30.37,NNW,335,1.0,3.0,90,0.00,,---,0.00,26.00,VWS V15.00,2017-12-14 17:09:00,
2017-12-14 09:14:00,39.7,37.0,30.37,NNW,332,1.0,2.0,90,0.00,,---,0.00,26.00,VWS V15.00,2017-12-14 17:14:00,
2017-12-14 09:19:00,39.7,37.0,30.37,NNW,332,1.0,2.0,90,0.00,,---,0.00,28.00,VWS V15.00,2017-12-14 17:19:00,
2017-12-14 09:24:00,39.7,37.0,30.37,NNW,332,1.0,2.0,90,0.00,,---,0.00,28.00,VWS V15.00,2017-12-14 17:24:00,
2017-12-14 09:29:00,39.7,37.3,30.38,NNW,332,2.0,2.0,91,0.00,,---,0.00,35.00,VWS V15.00,2017-12-14 17:29:00,
2017-12-14 09:34:00,39.8,37.4,30.38,NNW,332,2.0,3.0,91,0.00,,---,0.00,53.00,VWS V15.00,2017-12-14 17:34:00,
2017-12-14 09:39:00,39.8,37.4,30.38,NNW,332,2.0,3.0,91,0.00,,---,0.00,65.00,VWS V15.00,2017-12-14 17:39:00,
2017-12-14 09:44:00,39.9,37.5,30.37,NNW,332,1.0,1.0,91,0.00,,---,0.00,56.00,VWS V15.00,2017-12-14 17:44:00,
2017-12-14 09:49:00,40.0,37.6,30.37,NNW,333,1.0,2.0,91,0.00,,---,0.00,47.00,VWS V15.00,2017-12-14 17:49:00,
2017-12-14 09:54:00,40.2,37.8,30.37,NNW,333,1.0,1.0,91,0.00,,---,0.00,47.00,VWS V15.00,2017-12-14 17:54:00,
2017-12-14 09:59:00,40.4,38.0,30.37,NNW,329,1.0,2.0,91,0.00,,---,0.00,53.00,VWS V15.00,2017-12-14 17:59:00,
2017-12-14 10:04:00,40.6,38.5,30.37,NW,311,2.0,3.0,92,0.00,,---,0.00,62.00,VWS V15.00,2017-12-14 18:04:00,
2017-12-14 10:09:00,40.9,38.8,30.37,WNW,302,1.0,3.0,92,0.00,,---,0.00,67.00,VWS V15.00,2017-12-14 18:09:00,
2017-12-14 10:14:00,41.2,38.8,30.37,WNW,302,0.0,2.0,91,0.00,,---,0.00,72.00,VWS V15.00,2017-12-14 18:14:00,
2017-12-14 10:19:00,41.5,39.1,30.37,WNW,302,1.0,2.0,91,0.00,,---,0.00,84.00,VWS V15.00,2017-12-14 18:19:00,
2017-12-14 10:24:00,41.7,39.0,30.37,WNW,302,0.0,3.0,90,0.00,,---,0.00,86.00,VWS V15.00,2017-12-14 18:24:00,
2017-12-14 10:29:00,42.1,39.1,30.37,NW,319,2.0,3.0,89,0.00,,---,0.00,97.00,VWS V15.00,2017-12-14 18:29:00,
2017-12-14 10:34:00,42.4,39.4,30.36,NW,319,0.0,2.0,89,0.00,,---,0.00,104.00,VWS V15.00,2017-12-14 18:34:00,
2017-12-14 10:39:00,42.6,39.3,30.36,NW,319,1.0,2.0,88,0.00,,---,0.00,97.00,VWS V15.00,2017-12-14 18:39:00,
2017-12-14 10:47:00,42.9,39.6,30.35,NW,319,1.0,2.0,88,0.00,,---,0.00,79.00,VWS V15.00,2017-12-14 18:47:00,
2017-12-14 10:52:00,43.1,39.8,30.35,NW,319,0.0,0.0,88,0.00,,---,0.00,74.00,VWS V15.00,2017-12-14 18:52:00,
2017-12-14 10:57:00,43.2,39.9,30.35,NW,319,0.0,1.0,88,0.00,,---,0.00,69.00,VWS V15.00,2017-12-14 18:57:00,
2017-12-14 11:02:00,43.3,39.7,30.34,NW,319,1.0,1.0,87,0.00,,---,0.00,69.00,VWS V15.00,2017-12-14 19:02:00,
2017-12-14 11:07:00,43.5,39.9,30.34,NW,319,1.0,2.0,87,0.00,,---,0.00,69.00,VWS V15.00,2017-12-14 19:07:00,
2017-12-14 11:12:00,43.8,40.2,30.33,WNW,294,2.0,2.0,87,0.00,,---,0.00,54.00,VWS V15.00,2017-12-14 19:12:00,
2017-12-14 11:17:00,44.0,40.4,30.33,SW,230,1.0,2.0,87,0.00,,---,0.00,49.00,VWS V15.00,2017-12-14 19:17:00,
2017-12-14 11:22:00,44.1,40.5,30.33,SW,219,0.0,1.0,87,0.00,,---,0.00,46.00,VWS V15.00,2017-12-14 19:22:00,
2017-12-14 11:27:00,44.3,40.7,30.33,SW,218,2.0,3.0,87,0.00,,---,0.00,51.00,VWS V15.00,2017-12-14 19:27:00,
2017-12-14 11:32:00,44.6,41.0,30.33,SSW,213,3.0,3.0,87,0.00,,---,0.00,49.00,VWS V15.00,2017-12-14 19:32:00,
2017-12-14 11:37:00,44.9,41.3,30.33,SW,218,2.0,3.0,87,0.00,,---,0.00,49.00,VWS V15.00,2017-12-14 19:37:00,
2017-12-14 11:42:00,45.2,41.6,30.33,SW,221,2.0,2.0,87,0.00,,---,0.00,53.00,VWS V15.00,2017-12-14 19:42:00,
2017-12-14 11:47:00,45.4,41.5,30.33,SSW,209,2.0,4.0,86,0.00,,---,0.00,60.00,VWS V15.00,2017-12-14 19:47:00,
2017-12-14 11:52:00,45.6,41.0,30.33,SSW,207,0.0,1.0,84,0.00,,---,0.00,46.00,VWS V15.00,2017-12-14 19:52:00,
2017-12-14 11:57:00,45.7,41.2,30.32,South,172,3.0,5.0,84,0.00,,---,0.00,58.00,VWS V15.00,2017-12-14 19:57:00,
2017-12-14 12:02:00,45.9,41.3,30.32,South,171,4.0,4.0,84,0.00,,---,0.00,62.00,VWS V15.00,2017-12-14 20:02:00,
2017-12-14 12:07:00,46.1,41.5,30.32,SSE,155,2.0,4.0,84,0.00,,---,0.00,69.00,VWS V15.00,2017-12-14 20:07:00,
2017-12-14 12:12:00,46.4,41.8,30.31,SE,144,3.0,5.0,84,0.00,,---,0.00,76.00,VWS V15.00,2017-12-14 20:12:00,
2017-12-14 12:17:00,47.0,41.2,30.31,SE,140,1.0,6.0,80,0.00,,---,0.00,91.00,VWS V15.00,2017-12-14 20:17:00,
2017-12-14 12:22:00,47.2,41.7,30.32,South,169,2.0,4.0,81,0.00,,---,0.00,128.00,VWS V15.00,2017-12-14 20:22:00,
2017-12-14 12:27:00,47.6,42.1,30.31,SSW,205,2.0,5.0,81,0.00,,---,0.00,135.00,VWS V15.00,2017-12-14 20:27:00,
2017-12-14 12:32:00,47.6,42.1,30.32,SSE,153,2.0,2.0,81,0.00,,---,0.00,121.00,VWS V15.00,2017-12-14 20:32:00,
2017-12-14 12:37:00,47.2,41.7,30.32,ESE,120,1.0,4.0,81,0.00,,---,0.00,102.00,VWS V15.00,2017-12-14 20:37:00,
2017-12-14 12:42:00,47.4,41.5,30.32,SSE,148,2.0,2.0,80,0.00,,---,0.00,90.00,VWS V15.00,2017-12-14 20:42:00,
2017-12-14 12:47:00,47.8,41.6,30.31,SSW,196,3.0,4.0,79,0.00,,---,0.00,81.00,VWS V15.00,2017-12-14 20:47:00,
2017-12-14 12:52:00,47.9,41.4,30.31,SSE,161,4.0,4.0,78,0.00,,---,0.00,77.00,VWS V15.00,2017-12-14 20:52:00,
2017-12-14 12:57:00,47.7,40.8,30.30,SSE,158,1.0,4.0,77,0.00,,---,0.00,83.00,VWS V15.00,2017-12-14 20:57:00,
2017-12-14 13:02:00,47.5,41.0,30.30,SSW,194,2.0,2.0,78,0.00,,---,0.00,88.00,VWS V15.00,2017-12-14 21:02:00,
2017-12-14 13:07:00,47.6,41.1,30.30,South,175,2.0,4.0,78,0.00,,---,0.00,84.00,VWS V15.00,2017-12-14 21:07:00,
2017-12-14 13:12:00,47.8,41.6,30.30,SSW,207,1.0,4.0,79,0.00,,---,0.00,86.00,VWS V15.00,2017-12-14 21:12:00,
2017-12-14 13:17:00,48.0,41.2,30.29,South,171,0.0,4.0,77,0.00,,---,0.00,76.00,VWS V15.00,2017-12-14 21:17:00,
2017-12-14 13:22:00,47.6,41.1,30.29,South,171,0.0,1.0,78,0.00,,---,0.00,81.00,VWS V15.00,2017-12-14 21:22:00,
2017-12-14 13:27:00,47.6,41.4,30.29,South,184,0.0,3.0,79,0.00,,---,0.00,91.00,VWS V15.00,2017-12-14 21:27:00,
2017-12-14 13:32:00,47.6,41.4,30.29,South,184,3.0,3.0,79,0.00,,---,0.00,90.00,VWS V15.00,2017-12-14 21:32:00,
2017-12-14 13:37:00,47.4,41.2,30.29,South,185,3.0,4.0,79,0.00,,---,0.00,90.00,VWS V15.00,2017-12-14 21:37:00,
2017-12-14 13:42:00,47.6,41.8,30.30,SSW,205,2.0,2.0,80,0.00,,---,0.00,90.00,VWS V15.00,2017-12-14 21:42:00,
2017-12-14 13:47:00,47.7,41.8,30.29,SW,225,1.0,3.0,80,0.00,,---,0.00,93.00,VWS V15.00,2017-12-14 21:47:00,
2017-12-14 13:53:00,47.6,41.8,30.29,SSW,198,0.0,2.0,80,0.00,,---,0.00,114.00,VWS V15.00,2017-12-14 21:53:00,
2017-12-14 13:58:00,47.5,41.7,30.29,SSW,198,1.0,2.0,80,0.00,,---,0.00,114.00,VWS V15.00,2017-12-14 21:58:00,
2017-12-14 14:03:00,47.4,41.2,30.29,SSW,198,0.0,1.0,79,0.00,,---,0.00,90.00,VWS V15.00,2017-12-14 22:03:00,
2017-12-14 14:08:00,47.5,41.3,30.29,SSW,198,0.0,1.0,79,0.00,,---,0.00,107.00,VWS V15.00,2017-12-14 22:08:00,
2017-12-14 14:13:00,47.4,41.2,30.29,SSW,198,1.0,1.0,79,0.00,,---,0.00,98.00,VWS V15.00,2017-12-14 22:13:00,
2017-12-14 14:18:00,47.5,41.3,30.29,SSW,202,2.0,3.0,79,0.00,,---,0.00,74.00,VWS V15.00,2017-12-14 22:18:00,
2017-12-14 14:23:00,47.7,41.5,30.29,SSW,206,1.0,3.0,79,0.00,,---,0.00,111.00,VWS V15.00,2017-12-14 22:23:00,
2017-12-14 14:28:00,48.1,41.6,30.29,West,269,1.0,3.0,78,0.00,,---,0.00,116.00,VWS V15.00,2017-12-14 22:28:00,
2017-12-14 14:33:00,48.3,41.4,30.29,West,264,3.0,3.0,77,0.00,,---,0.00,121.00,VWS V15.00,2017-12-14 22:33:00,
2017-12-14 14:38:00,48.1,41.6,30.29,WSW,249,1.0,3.0,78,0.00,,---,0.00,118.00,VWS V15.00,2017-12-14 22:38:00,
2017-12-14 14:43:00,48.0,41.5,30.29,SSW,200,0.0,2.0,78,0.00,,---,0.00,86.00,VWS V15.00,2017-12-14 22:43:00,
2017-12-14 14:48:00,47.9,41.4,30.28,SSW,200,2.0,2.0,78,0.00,,---,0.00,90.00,VWS V15.00,2017-12-14 22:48:00,
2017-12-14 14:53:00,47.7,41.2,30.28,SSW,200,1.0,1.0,78,0.00,,---,0.00,56.00,VWS V15.00,2017-12-14 22:53:00,